Change the Weather History Date:

Monday, October 8, 2012

  Actual Average Record
Temperature  
Mean Temperature 49 °F 55 °F  
Max Temperature 64 °F 67 °F 92 °F (1938)
Min Temperature 33 °F 44 °F 25 °F (2000)
Degree Days  
Heating Degree Days 16 10  
Month to date heating degree days 121 73  
Since 1 July heating degree days 261 194  
Cooling Degree Days 0 1  
Month to date cooling degree days 0 8  
Year to date cooling degree days 1220 935  
Moisture  
Dew Point 30 °F    
Average Humidity 52    
Maximum Humidity 75    
Minimum Humidity 28    
Precipitation  
Precipitation 0.00 in 0.09 in 1.84 in (1970)
Month to date precipitation 0.15 0.78  
Year to date precipitation 19.41 31.27  
Sea Level Pressure  
Sea Level Pressure 30.00 in    
Wind  
Wind Speed 15 mph (SSW)    
Max Wind Speed 26 mph    
Max Gust Speed 35 mph    
Visibility 10 miles    
Events Snow    
T = Trace of Precipitation, MM = Missing Value Source: NWS Daily Summary

Daily Weather History Graph

Daily Weather History Graph

Search for Another Location

Airport or City:

Trip Planner

Search our weather history database for the weather conditions in past years. The results will help you decide how hot, cold, wet, or windy it might be!

Date:

Astronomy

Oct. 08, 2012 Rise Set
Actual Time 7:14 AM CDT 6:39 PM CDT
Civil Twilight 6:46 AM CDT 7:06 PM CDT
Nautical Twilight 6:14 AM CDT 7:38 PM CDT
Astronomical Twilight 5:42 AM CDT 8:10 PM CDT
Moon No Moon Rise 2:32 PM CDT (10/8)
Length of Visible Light 12h 20m
Length of Day
11h 25m
Last Quarter, 46% of the Moon is Illuminated
Oct 8
Last Quarter
Oct 15
New
Oct 21
First Quarter
Oct 29
Full
Nov 6
Last Quarter

Hourly Weather History & Observations

Time (CDT) Temp. Windchill Dew Point Humidity Pressure Visibility Wind Dir Wind Speed Gust Speed Precip Events Conditions
12:53 AM 35.1 °F 27.9 °F 25.0 °F 67% 30.10 in 9.0 mi South 9.2 mph - 0.00 in Snow Light Snow
1:53 AM 36.0 °F 29.0 °F 25.0 °F 64% 30.10 in 9.0 mi South 9.2 mph - 0.00 in Snow Light Snow
2:53 AM 34.0 °F 27.2 °F 25.0 °F 70% 30.08 in 9.0 mi South 8.1 mph - 0.00 in Snow Light Snow
3:53 AM 35.1 °F 28.6 °F 26.1 °F 70% 30.07 in 9.0 mi SSW 8.1 mph - 0.00 in Snow Light Snow
4:53 AM 36.0 °F 28.5 °F 26.1 °F 67% 30.07 in 9.0 mi South 10.4 mph - 0.00 in Snow Light Snow
5:53 AM 34.0 °F 26.6 °F 26.1 °F 73% 30.07 in 9.0 mi South 9.2 mph - 0.00 in Snow Light Snow
6:53 AM 34.0 °F 26.6 °F 27.0 °F 75% 30.07 in 9.0 mi South 9.2 mph - 0.00 in Snow Light Snow
7:53 AM 36.0 °F 28.0 °F 28.0 °F 73% 30.08 in 9.0 mi South 11.5 mph - 0.00 in Snow Light Snow
8:53 AM 42.1 °F 35.2 °F 30.0 °F 62% 30.07 in 10.0 mi SSW 12.7 mph - 0.00 in   Clear
9:53 AM 50.0 °F - 30.9 °F 48% 30.06 in 10.0 mi SSW 15.0 mph 23.0 mph N/A   Clear
10:53 AM 55.0 °F - 32.0 °F 42% 30.05 in 10.0 mi SSW 16.1 mph 24.2 mph N/A   Clear
11:53 AM 59.0 °F - 30.9 °F 35% 30.02 in 10.0 mi SSW 23.0 mph 29.9 mph N/A   Clear
12:53 PM 61.0 °F - 32.0 °F 34% 30.00 in 10.0 mi SSW 20.7 mph 27.6 mph N/A   Clear
1:53 PM 63.0 °F - 30.9 °F 30% 29.96 in 10.0 mi SSW 17.3 mph 31.1 mph N/A   Clear
2:53 PM 64.0 °F - 30.0 °F 28% 29.94 in 10.0 mi SSW 26.5 mph 32.2 mph N/A   Clear
3:53 PM 63.0 °F - 30.0 °F 29% 29.93 in 10.0 mi SSW 21.9 mph 31.1 mph N/A   Clear
4:53 PM 63.0 °F - 30.9 °F 30% 29.91 in 10.0 mi SSW 16.1 mph 27.6 mph N/A   Clear
5:53 PM 61.0 °F - 32.0 °F 34% 29.91 in 10.0 mi SSW 15.0 mph 21.9 mph N/A   Clear
6:53 PM 57.9 °F - 32.0 °F 37% 29.91 in 10.0 mi SSW 15.0 mph 23.0 mph N/A   Clear
7:53 PM 55.0 °F - 32.0 °F 42% 29.93 in 10.0 mi South 12.7 mph 21.9 mph N/A   Clear
8:53 PM 53.1 °F - 33.1 °F 47% 29.92 in 10.0 mi South 16.1 mph - N/A   Clear
9:53 PM 51.1 °F - 33.1 °F 50% 29.93 in 10.0 mi South 12.7 mph - N/A   Clear
10:53 PM 51.1 °F - 33.1 °F 50% 29.91 in 10.0 mi South 16.1 mph - N/A   Clear
11:53 PM 51.8 °F - 33.8 °F 50% 29.90 in 10.0 mi SSW 15.0 mph - N/A   Clear